Tracking 20475 objects as of 27-Feb-2020
HD Live streaming from Space Station
objects crossing your sky now

OSCAR 32

Track OSCAR 32 now!
10-day predictions
OSCAR 32 is classified as:


NORAD ID: 19071
Int'l Code: 1988-033B
Perigee: 1,021.9 km
Apogee: 1,303.7 km
Inclination: 90.4 °
Period: 108.5 minutes
Semi major axis: 7533 km
RCS: 1.686 m2 (large)
Launch date: April 26, 1988
Source: United States (US)
Launch site: AIR FORCE WESTERN TEST RANGE (AFWTR)
aabbcc
Your satellite tracking list
Your tracking list is empty




NASA's NSSDC Master Catalog

Two Line Element Set (TLE):
1 19071U 88033B   20056.66518010 +.00000021 +00000-0 +29902-4 0  9999
2 19071 090.3643 308.3977 0187018 295.5529 090.6347 13.27641530541870
Source of the keplerian elements: AFSPC